Wind_Speed
15 13 11 10 12 15 17 18 19 19 16 14 12 11 11 11 13 15 18 19 20 21 22 22 21 21 21 22 23 24 24 24 23 22 21 21 20 20 21 22 22 22 22 23
7 6 4 3 6 7 10 12 12 12 10 9 9 9 10 11 13 14 16 17 18 19 21 22 22 22 22 23 24 24 24 23 22 22 22 21 22 22 22 23 23 23 23 23
3 1 1 3 3 5 7 9 9 9 8 7 8 9 9 10 11 12 14 15 16 17 19 20 20 21 21 21 22 22 21 22 22 22 22 22 23 24 24 24 24 24 24 23
2 2 1 3 4 6 7 7 6 6 6 6 6 7 7 8 8 9 10 10 12 13 14 16 17 17 18 18 18 19 20 21 21 22 23 23 24 25 25 24 24 24 24 24
1 0 1 2 3 5 5 5 4 4 4 4 5 5 5 5 5 5 5 6 7 9 11 12 14 15 16 17 18 20 21 21 22 22 23 23 24 24 24 24 24 24 24 24
3 2 3 2 0 3 4 3 3 3 2 3 5 5 5 3 3 3 3 3 5 7 9 11 13 15 16 17 18 19 20 21 22 22 23 23 23 23 23 23 23 24 24 24
4 5 3 3 2 2 4 4 4 4 4 4 4 3 2 0 1 1 2 4 6 8 10 12 13 15 16 17 18 19 20 21 22 22 21 21 22 22 23 23 23 23 24 24
5 5 4 4 3 2 2 4 4 5 4 3 2 1 1 1 1 2 4 6 8 10 11 13 14 15 16 17 18 19 20 20 19 19 19 20 20 21 22 22 22 23 24 24
6 4 4 3 3 3 4 4 5 6 5 3 1 1 1 1 2 4 6 8 10 11 12 13 14 15 16 17 18 18 18 18 18 18 18 18 18 19 20 21 21 22 23 24
8 5 5 4 4 5 6 7 7 6 5 3 1 1 1 2 4 6 8 10 11 12 13 14 15 16 16 17 17 17 17 17 16 16 16 16 17 17 18 18 19 21 22 23
9 7 6 6 7 7 7 6 7 6 5 3 2 1 1 3 5 7 9 11 12 13 14 15 15 16 16 16 16 17 16 16 15 15 15 15 16 16 16 16 17 17 18 19
12 9 7 7 8 8 8 7 7 6 5 5 4 3 3 4 6 8 10 12 13 14 15 15 15 16 16 16 16 16 16 15 15 15 15 14 14 14 14 14 14 13 13 12
16 12 9 8 9 9 9 8 7 7 6 6 6 5 5 5 7 9 11 12 13 14 15 15 15 15 15 15 16 16 16 15 15 14 14 13 12 12 12 12 11 10 8 7
21 16 11 9 8 8 9 8 8 9 8 8 8 7 7 7 7 9 11 12 13 14 15 15 15 15 15 15 16 16 16 15 14 13 12 11 11 11 11 10 9 8 7 6
24 20 14 10 9 9 10 10 9 10 10 10 9 9 8 8 8 9 10 12 13 14 15 15 15 15 15 15 16 16 15 14 13 12 11 10 10 10 9 8 7 7 6 5
27 25 19 13 11 11 11 11 11 12 12 11 11 10 9 8 8 9 10 11 12 13 14 14 14 14 15 15 16 15 15 13 12 11 9 9 8 8 8 7 7 6 6 6
28 27 23 16 12 11 12 13 13 14 15 14 13 12 11 10 9 8 9 10 12 13 13 13 13 14 14 15 15 15 14 13 12 11 9 9 8 8 8 7 7 7 7 7
29 28 25 20 15 12 11 13 15 15 17 17 16 15 13 12 10 8 8 9 10 11 12 12 13 13 14 14 15 15 14 14 13 12 11 10 9 9 9 9 9 8 8 8
29 29 27 23 19 17 15 15 16 18 19 19 19 17 16 14 11 9 7 8 9 10 10 11 11 12 13 14 14 14 14 14 14 13 13 12 11 11 11 11 10 10 10 10
29 30 29 25 23 20 18 18 19 20 21 21 21 19 17 15 13 10 8 7 7 8 8 9 10 11 11 12 13 13 14 14 14 14 14 14 13 13 13 13 13 13 12 12
29 30 30 28 26 24 22 19 19 20 22 22 22 21 19 16 14 12 9 7 7 6 7 7 8 9 10 10 11 12 12 13 13 13 13 14 14 14 14 14 14 13 13 13
29 30 31 30 29 27 25 19 16 18 21 23 23 22 20 18 16 13 11 8 7 6 5 6 6 7 8 8 9 10 11 11 12 12 12 13 13 13 14 14 14 14 14 14
28 29 31 31 31 29 26 19 14 16 20 22 24 23 22 19 18 16 13 10 8 6 5 4 4 5 5 6 7 8 8 9 10 11 11 12 12 12 13 13 13 13 13 13
27 28 30 31 31 30 26 19 14 14 18 22 24 24 23 21 20 18 15 12 10 7 6 5 3 3 3 4 4 5 6 7 8 9 10 10 11 11 11 11 12 12 12 12
26 27 29 30 31 30 27 20 15 14 18 22 24 24 24 23 21 20 17 15 12 9 8 6 4 3 2 1 1 2 3 5 6 6 7 8 8 9 10 10 10 10 11 11
25 26 27 29 29 29 27 21 16 14 17 22 25 25 25 24 23 22 20 17 15 12 10 8 7 5 4 3 2 1 2 3 4 4 5 5 6 7 8 8 9 9 9 10
26 26 26 27 28 28 27 23 19 16 17 22 25 27 27 26 25 24 22 20 18 15 13 11 9 8 7 6 5 4 3 2 2 2 2 3 4 5 6 7 7 8 9 9
Wind_Direction
293 275 265 259 249 241 241 243 246 251 255 262 269 268 265 260 260 258 257 259 259 261 267 271 274 277 281 285 287 288 290 292 291 291 290 290 290 289 289 287 285 282 279 276
313 275 252 257 253 242 234 235 239 247 251 265 271 274 274 273 269 265 264 264 263 264 266 270 274 277 279 282 285 288 290 291 292 290 289 288 288 288 288 287 285 283 280 277
8 96 153 216 213 198 216 230 227 232 246 258 268 271 276 279 274 269 268 265 265 265 266 270 274 277 280 281 283 286 289 292 290 290 292 292 290 288 287 286 284 282 280 277
62 120 298 190 177 176 182 191 208 224 239 252 272 281 287 285 281 275 270 267 266 266 270 276 280 284 285 285 285 289 293 293 293 291 290 290 289 287 286 285 283 281 278 275
60 285 288 202 175 168 173 177 195 208 226 255 276 287 284 286 290 288 282 281 277 276 279 282 286 289 291 293 293 293 293 293 293 291 290 290 289 287 286 284 282 279 277 274
331 310 306 274 228 166 182 189 210 222 248 288 287 284 280 282 296 305 285 294 299 297 296 298 300 301 301 301 299 297 296 295 294 293 292 291 289 288 287 285 282 279 275 273
319 316 324 284 291 184 218 234 233 248 286 288 284 302 296 262 47 1 333 324 319 316 313 311 309 308 306 304 302 300 298 296 295 294 292 291 290 289 287 285 282 279 276 273
323 307 319 298 266 246 261 247 242 256 271 282 276 318 51 75 30 349 334 328 324 321 319 318 316 313 311 309 307 304 302 300 298 296 294 293 292 291 289 286 282 279 277 274
352 322 320 298 257 264 264 283 278 264 260 260 291 7 78 37 351 334 328 325 324 323 322 320 319 318 316 314 312 310 307 305 302 300 299 297 297 296 293 289 285 281 278 275
355 337 318 298 284 283 278 283 278 263 257 260 262 135 54 336 328 326 324 324 324 323 322 320 320 320 318 317 316 315 313 310 308 306 304 304 304 303 300 295 291 286 282 278
357 339 319 299 287 281 286 283 268 252 249 247 230 207 294 317 321 323 325 325 325 326 325 323 322 322 321 320 319 320 319 316 313 312 311 311 312 312 309 305 302 297 291 284
0 347 316 295 286 277 278 279 260 247 248 243 240 247 276 300 313 321 324 326 327 328 327 326 325 325 325 324 324 325 325 322 319 317 317 316 317 319 319 318 316 313 307 298
357 349 328 294 278 273 272 272 258 246 246 237 239 251 268 289 307 319 324 327 329 330 330 330 330 331 331 329 328 328 328 325 321 319 319 320 322 325 329 331 333 334 333 326
358 348 331 302 277 270 261 263 258 245 243 234 239 249 262 281 302 316 324 328 331 333 334 335 335 337 337 335 333 331 329 327 324 323 324 325 328 332 338 344 350 356 2 7
358 353 337 307 279 263 254 255 255 247 238 232 236 247 258 273 294 312 323 329 333 335 336 338 339 342 342 341 338 336 335 333 330 329 330 333 336 341 349 357 5 14 23 34
356 356 347 323 289 267 254 248 243 237 232 228 234 245 254 265 283 303 318 327 332 336 338 340 342 345 347 347 346 345 346 346 344 343 344 345 348 355 5 15 23 32 40 50
350 352 349 336 313 282 262 250 242 235 229 228 233 241 248 257 271 290 311 324 331 337 341 343 346 348 350 352 354 355 356 358 2 4 6 8 12 18 28 37 45 52 57 62
343 346 344 335 320 301 281 261 246 237 230 229 231 236 243 250 259 276 299 318 329 337 343 346 349 352 355 358 0 4 9 13 18 22 25 29 34 40 46 52 58 62 66 70
338 341 340 335 323 309 288 273 256 241 233 230 230 232 236 241 248 262 284 307 323 334 343 349 353 356 0 4 9 13 19 23 27 30 35 39 45 51 57 62 66 69 71 73
334 337 338 333 326 316 301 282 263 246 234 229 227 226 229 235 240 249 266 290 313 330 341 348 355 359 5 11 17 22 26 30 34 38 44 49 54 58 64 69 72 73 75 75
330 333 335 332 327 321 313 295 269 247 233 227 222 220 223 228 234 240 249 269 294 316 332 344 353 1 9 17 22 27 32 36 39 44 50 56 61 64 67 71 73 74 75 75
327 329 332 331 327 324 321 306 275 245 231 223 218 216 218 223 229 232 237 252 274 293 313 332 348 1 12 19 25 30 35 39 42 48 54 60 64 66 68 70 71 72 72 72
323 325 328 330 330 327 325 313 282 248 231 222 217 215 217 221 224 226 230 239 256 269 283 305 330 353 9 18 24 30 39 46 50 54 58 62 65 67 68 69 70 70 69 67
318 321 324 328 330 330 326 317 289 254 233 223 218 218 218 219 220 221 224 231 242 250 258 271 292 321 350 10 23 34 45 54 58 60 61 63 66 67 67 67 67 66 65 62
311 315 319 324 327 329 328 317 296 264 238 225 221 220 218 217 218 219 222 227 233 238 243 248 255 266 285 320 16 45 58 63 64 65 65 64 63 63 63 62 61 59 57 53
303 307 312 317 322 324 325 318 298 273 242 227 223 220 218 216 217 218 220 224 228 231 235 238 239 242 243 236 217 167 112 93 82 75 67 61 58 56 54 52 50 47 43 39
294 298 304 309 315 318 319 317 302 278 250 233 227 221 217 216 217 218 220 223 225 226 230 233 233 233 232 225 216 206 189 163 133 99 63 47 43 40 37 34 32 31 29 27
Height
5737 5738 5740 5742 5746 5749 5752 5755 5758 5759 5760 5761 5763 5765 5768 5769 5771 5772 5774 5774 5775 5776 5777 5777 5778 5777 5777 5776 5775 5774 5773 5772 5771 5771 5770 5769 5768 5767 5766 5765 5764 5764 5764 5764
5735 5736 5738 5741 5743 5746 5749 5752 5754 5756 5757 5759 5761 5764 5765 5766 5767 5768 5769 5769 5770 5771 5772 5772 5772 5772 5772 5771 5770 5769 5768 5766 5765 5764 5764 5763 5762 5761 5761 5760 5759 5758 5758 5758
5736 5736 5738 5740 5742 5745 5747 5749 5752 5755 5757 5759 5760 5762 5763 5763 5764 5764 5764 5765 5766 5767 5767 5767 5767 5767 5766 5766 5765 5764 5762 5761 5760 5759 5758 5757 5756 5755 5754 5753 5753 5752 5751 5751
5737 5739 5740 5742 5741 5744 5746 5748 5751 5753 5756 5757 5758 5759 5760 5760 5760 5761 5761 5761 5762 5762 5763 5763 5762 5762 5762 5761 5760 5759 5758 5757 5755 5754 5752 5751 5750 5748 5747 5747 5746 5745 5744 5744
5739 5739 5740 5741 5741 5743 5745 5748 5751 5753 5755 5756 5757 5757 5758 5758 5758 5758 5758 5759 5759 5760 5760 5760 5760 5759 5758 5757 5756 5755 5753 5751 5750 5748 5746 5745 5743 5742 5740 5739 5739 5738 5737 5737
5741 5741 5741 5743 5743 5744 5748 5749 5751 5753 5754 5755 5756 5757 5757 5757 5757 5757 5757 5758 5758 5758 5758 5757 5757 5755 5754 5753 5752 5750 5748 5746 5744 5742 5740 5739 5737 5735 5734 5733 5732 5731 5730 5730
5743 5743 5743 5744 5745 5747 5750 5751 5752 5753 5754 5755 5755 5756 5757 5756 5757 5757 5757 5757 5757 5756 5755 5754 5753 5752 5750 5748 5747 5745 5743 5741 5739 5737 5735 5733 5731 5729 5728 5726 5725 5724 5723 5723
5744 5745 5748 5746 5747 5749 5750 5751 5752 5753 5754 5755 5755 5756 5756 5756 5757 5757 5757 5756 5755 5754 5753 5752 5750 5748 5746 5744 5742 5740 5738 5735 5733 5731 5729 5727 5725 5723 5721 5719 5718 5717 5716 5715
5747 5748 5747 5747 5748 5749 5750 5751 5753 5754 5754 5755 5756 5756 5756 5757 5757 5757 5756 5755 5754 5753 5751 5749 5747 5745 5742 5740 5738 5736 5733 5731 5729 5726 5724 5722 5720 5718 5715 5713 5711 5710 5709 5708
5748 5748 5748 5749 5749 5750 5751 5752 5753 5754 5755 5755 5756 5756 5757 5757 5757 5756 5756 5754 5753 5751 5749 5747 5744 5742 5739 5737 5734 5732 5729 5727 5724 5722 5720 5717 5715 5712 5710 5707 5705 5703 5701 5700
5750 5749 5749 5749 5750 5750 5751 5752 5753 5754 5755 5755 5756 5756 5757 5757 5756 5756 5755 5753 5751 5749 5747 5744 5742 5739 5736 5734 5731 5729 5726 5723 5721 5718 5716 5713 5710 5708 5705 5702 5699 5697 5695 5693
5751 5749 5749 5749 5749 5750 5751 5751 5752 5753 5754 5755 5756 5756 5756 5756 5756 5755 5754 5752 5750 5748 5745 5742 5740 5737 5734 5731 5729 5726 5723 5720 5717 5715 5712 5710 5707 5704 5701 5698 5695 5692 5689 5688
5751 5749 5748 5747 5747 5748 5749 5750 5751 5752 5753 5754 5755 5756 5756 5756 5755 5754 5753 5751 5749 5746 5744 5741 5738 5735 5732 5729 5726 5724 5721 5718 5715 5712 5709 5707 5704 5701 5698 5695 5692 5689 5687 5685
5751 5748 5746 5745 5745 5746 5747 5748 5749 5751 5752 5753 5754 5755 5755 5755 5754 5753 5752 5750 5748 5745 5742 5740 5737 5733 5731 5728 5725 5722 5719 5715 5712 5710 5707 5704 5702 5699 5696 5694 5691 5689 5687 5685
5750 5747 5744 5743 5742 5743 5744 5745 5747 5748 5750 5751 5752 5753 5753 5753 5753 5752 5751 5749 5747 5744 5742 5739 5736 5733 5730 5727 5723 5720 5717 5714 5711 5708 5705 5703 5700 5698 5696 5693 5692 5690 5688 5687
5750 5746 5742 5740 5740 5740 5741 5742 5743 5745 5746 5748 5749 5751 5751 5751 5751 5750 5749 5748 5746 5743 5741 5738 5735 5732 5729 5726 5723 5719 5716 5713 5709 5707 5704 5702 5700 5698 5696 5694 5692 5691 5690 5689
5748 5744 5740 5738 5737 5736 5737 5738 5739 5741 5743 5745 5746 5748 5749 5749 5749 5749 5748 5747 5745 5743 5741 5738 5735 5732 5729 5726 5723 5719 5716 5713 5710 5707 5704 5702 5700 5698 5696 5695 5694 5693 5692 5691
5745 5742 5738 5735 5733 5733 5733 5733 5734 5736 5738 5740 5742 5744 5746 5747 5747 5747 5747 5746 5744 5742 5740 5738 5735 5733 5730 5727 5723 5720 5717 5714 5711 5708 5706 5704 5702 5700 5698 5697 5696 5695 5694 5694
5743 5739 5735 5731 5729 5728 5728 5728 5729 5730 5732 5735 5738 5740 5742 5744 5745 5745 5745 5744 5743 5742 5740 5738 5736 5733 5731 5728 5725 5722 5719 5716 5714 5711 5709 5706 5704 5703 5701 5700 5699 5698 5698 5697
5739 5735 5731 5728 5725 5723 5722 5721 5722 5723 5725 5729 5732 5735 5738 5740 5742 5743 5743 5743 5742 5741 5740 5738 5736 5734 5732 5729 5727 5724 5722 5719 5717 5715 5712 5710 5708 5707 5705 5704 5703 5702 5701 5701
5736 5732 5728 5724 5721 5718 5716 5713 5713 5715 5718 5722 5726 5729 5733 5736 5738 5740 5741 5741 5741 5740 5739 5738 5737 5735 5733 5731 5729 5727 5725 5723 5721 5719 5717 5715 5713 5712 5710 5709 5708 5707 5706 5705
5732 5728 5724 5720 5716 5713 5709 5706 5706 5708 5711 5715 5720 5724 5728 5731 5734 5737 5738 5739 5740 5739 5739 5738 5737 5736 5734 5733 5731 5730 5728 5726 5725 5723 5721 5720 5718 5717 5715 5714 5713 5712 5710 5710
5728 5724 5720 5717 5712 5708 5704 5701 5701 5703 5706 5710 5715 5719 5723 5727 5730 5733 5735 5737 5738 5738 5738 5738 5737 5736 5735 5734 5733 5732 5731 5729 5728 5727 5725 5724 5723 5721 5720 5719 5718 5716 5715 5714
5723 5720 5717 5713 5709 5705 5702 5699 5698 5700 5702 5706 5711 5715 5719 5723 5726 5730 5732 5734 5736 5736 5737 5737 5737 5736 5736 5735 5734 5734 5733 5732 5731 5730 5729 5728 5727 5725 5724 5723 5722 5721 5719 5718
5718 5716 5713 5710 5706 5703 5700 5697 5697 5697 5699 5703 5707 5711 5715 5719 5723 5726 5729 5731 5733 5734 5735 5735 5736 5736 5736 5736 5735 5735 5735 5734 5733 5733 5732 5731 5730 5729 5728 5727 5725 5724 5723 5721
5713 5711 5709 5706 5703 5700 5697 5696 5695 5695 5696 5699 5703 5707 5711 5714 5718 5722 5725 5728 5730 5732 5733 5734 5735 5735 5736 5736 5736 5736 5736 5735 5735 5735 5734 5733 5732 5731 5730 5729 5728 5727 5725 5724
5706 5705 5703 5702 5699 5697 5694 5693 5692 5692 5693 5695 5699 5702 5706 5710 5714 5718 5721 5724 5727 5729 5731 5732 5733 5734 5735 5735 5736 5736 5736 5736 5736 5736 5735 5735 5734 5733 5732 5731 5730 5729 5727 5726